[[{"header":{"parameterUnit":"m.s-1","parameterCategory":1,"la1":30.2991,"la2":30.254,"lo1":-89.0895,"lo2":-89.0444,"dy":0.0017,"dx":0.0017,"nx":28,"ny":28,"refTime":"2025-02-23T03:00:00:Z","depth":0,"parameterNumber":2,"parameterNumberName":"U-component_of_WINDS"},"data":[0,0,0,0,0,0,0,0,0,0,0,0,0,0,0,0,0,0,0,0,0,0,0,0,0,0,0,0,0,0,0,0,0,0,0,0,0,0,0,0,0,0,0,0,0,0,0,0,0,0,0,0,0,0,0,0,0,0,-6.5561,-6.556,0,-6.5458,-6.5457,-6.5456,-6.525,-6.5246,-6.5242,-6.5238,-6.5136,-6.5137,-6.5138,0,0,0,0,0,0,0,0,0,0,0,0,0,-6.5584,-6.5584,-6.5562,-6.556,-6.5559,-6.5458,-6.5457,-6.5455,-6.525,-6.5245,-6.524,-6.5236,-6.5135,-6.5136,-6.5138,0,0,0,0,0,0,0,0,0,0,0,0,0,-6.5537,-6.5585,-6.5562,-6.5444,-6.5433,-6.5458,-6.5457,-6.5455,-6.5251,-6.5245,-6.5239,-6.5233,-6.5135,-6.5136,-6.5138,-6.5271,0,0,-6.5143,-6.5144,0,0,0,0,0,0,0,0,-6.554,-6.5536,-6.5463,-6.5453,-6.544,-6.536,-6.5427,-6.5393,-6.5253,-6.5321,-6.5238,-6.523,-6.5216,-6.521,-6.5204,-6.5266,-6.5261,-6.5143,-6.5144,-6.5145,-6.5145,0,0,0,0,0,0,0,-6.5543,-6.554,-6.5521,-6.5462,-6.5448,-6.5398,-6.5384,-6.542,-6.5304,-6.5314,-6.5299,-6.5289,-6.5208,-6.5203,-6.52,-6.526,-6.5143,-6.5144,-6.5145,-6.5146,-6.5422,-6.5428,0,0,0,0,0,0,-6.5563,-6.5544,-6.5524,-6.5517,-6.5475,-6.5402,-6.5387,-6.5392,-6.5303,-6.5283,-6.5295,-6.528,-6.5203,-6.5199,-6.5196,-6.5342,-6.5145,-6.5146,-6.5147,-6.5415,-6.5423,-6.543,0,0,0,0,0,0,-6.5564,-6.5563,-6.5528,-6.5526,-6.5518,-6.5408,-6.5416,-6.5393,-6.5388,-6.5288,-6.5267,-6.5311,-6.5198,-6.5194,-6.5252,-6.5336,-6.5147,-6.5148,-6.5408,-6.5418,-6.5427,-6.5639,0,0,0,0,0,0,-6.5566,-6.5565,-6.5614,-6.5529,-6.5519,-6.5587,-6.5421,-6.5396,-6.5391,-6.5371,-6.5297,-6.5279,-6.5193,-6.5251,-6.5254,-6.5335,-6.515,-6.54,-6.5412,-6.5424,-6.5624,-6.5655,-6.5681,0,0,0,0,0,-6.5567,-6.5679,-6.5618,-6.5616,-6.5578,-6.5592,-6.5586,-6.5483,-6.5399,-6.5447,-6.5382,-6.5282,-6.5327,-6.5259,-6.5261,-6.5343,-6.5394,-6.5409,-6.5423,-6.5611,-6.5649,-6.568,0,0,0,0,0,0,-6.5779,-6.5666,-6.5596,-6.5684,-6.5649,-6.5557,-6.5614,-6.5527,-6.5516,-6.5498,-6.5372,-6.5357,-6.5432,-6.5394,-6.532,-6.5465,-6.5344,-6.536,-6.5487,-6.5522,-6.555,-6.5557,-6.5151,0,0,0,0,0,-6.5836,-6.5856,-6.5756,-6.5843,-6.5829,-6.5726,-6.5728,-6.5652,-6.5611,-6.5595,-6.5535,-6.55,-6.5505,-6.5512,-6.5512,-6.5618,-6.5598,-6.5676,-6.5704,-6.5728,-6.5742,-6.5792,-6.5825,-6.5477,-6.5477,-6.5476,0,0,-6.5953,-6.5894,-6.5915,-6.5884,-6.5848,-6.5871,-6.5714,-6.5747,-6.5763,-6.56,-6.5651,-6.5606,-6.5558,-6.5641,-6.5674,-6.5611,-6.5834,-6.5746,-6.5766,-6.5767,-6.581,-6.5843,-6.5873,-6.5486,-6.5485,-6.5483,0,0,-6.6178,-6.6137,-6.6203,-6.6169,-6.6116,-6.6046,-6.6062,-6.5983,-6.5946,-6.5995,-6.5873,-6.5891,-6.5904,-6.5874,-6.5861,-6.6074,-6.598,-6.6078,-6.6226,-6.6276,-6.6304,-6.6327,-6.64,-6.6429,-6.6093,-6.6093,-6.6094,0,-6.6332,-6.6361,-6.6249,-6.6288,-6.6277,-6.613,-6.6196,-6.6169,-6.612,-6.6116,-6.6046,-6.6057,-6.6015,-6.6087,-6.6139,-6.6134,-6.6147,-6.6085,-6.6309,-6.6331,-6.6352,-6.642,-6.6448,-6.6105,-6.6104,-6.6103,-6.6102,0,-6.6551,-6.6573,-6.6633,-6.6586,-6.6583,-6.6636,-6.6532,-6.6542,-6.6466,-6.6404,-6.6455,-6.6399,-6.6383,-6.6395,-6.6323,-6.6457,-6.6419,-6.6331,-6.6206,-6.6399,-6.646,-6.6486,-6.6122,-6.6118,-6.6115,-6.6112,0,0,-6.6906,-6.6795,-6.6819,-6.6794,-6.6724,-6.6739,-6.6786,-6.6769,-6.6779,-6.675,-6.6784,-6.6798,-6.6715,-6.6701,-6.6623,-6.6668,-6.6837,-6.6574,-6.6571,-6.6622,-6.6978,-6.7042,-6.7075,-6.6775,-6.678,-6.6784,-6.6981,0,-6.7113,-6.7183,-6.7083,-6.7176,-6.7194,-6.7054,-6.7094,-6.7055,-6.6999,-6.7006,-6.6943,-6.6954,-6.6845,-6.6835,-6.6873,-6.6809,-6.6906,-6.6793,-6.6805,-6.6806,-6.6818,-6.7107,-6.7176,-6.7365,-6.7005,-6.7009,-6.7012,0,-6.7365,-6.7345,-6.744,-6.7361,-6.7365,-6.7402,-6.7377,-6.7387,-6.734,-6.7295,-6.7278,-6.7186,-6.7225,-6.7106,-6.7157,-6.7082,-6.7081,-6.705,-6.7055,-6.705,-6.6919,-6.7108,-6.7423,-6.7451,-6.7049,-6.7046,-6.7043,0,-6.7611,-6.7609,-6.7663,-6.7648,-6.7558,-6.7587,-6.7552,-6.7498,-6.7494,-6.7474,-6.7469,-6.7455,-6.7446,-6.7437,-6.7343,-6.7265,-6.7404,-6.7278,-6.7367,-6.737,-6.7401,-6.74,-6.7718,-6.7406,-6.7405,-6.7405,-6.7404,0,-6.7851,-6.7914,-6.7772,-6.7806,-6.7872,-6.7756,-6.7825,-6.7775,-6.7729,-6.775,-6.763,-6.7653,-6.7528,-6.7537,-6.7464,-6.7516,-6.7514,-6.7478,-6.7457,-6.7487,-6.7491,-6.7483,-6.7466,-6.7412,-6.741,-6.7409,-6.7408,0,-6.8136,-6.8044,-6.8095,-6.8005,-6.7984,-6.8037,-6.796,-6.7987,-6.7922,-6.7951,-6.7951,-6.785,-6.7854,-6.7759,-6.7746,-6.7697,-6.778,-6.7737,-6.7796,-6.7781,-6.7874,-6.7865,-6.8195,-6.8231,-6.79,-6.7903,-6.7906,0,-6.8295,-6.8339,-6.8254,-6.8259,-6.8229,-6.8239,-6.8233,-6.8122,-6.8121,-6.807,-6.8103,-6.8098,-6.8087,-6.8101,-6.8026,-6.8014,-6.7969,-6.8085,-6.7966,-6.7994,-6.7967,-6.7964,-6.7967,-6.811,-6.8114,-6.8117,-6.812,0,-6.8585,-6.8536,-6.8532,-6.8513,-6.8509,-6.8488,-6.846,-6.8471,-6.8349,-6.8354,-6.8356,-6.8348,-6.8333,-6.8328,-6.8302,-6.8265,-6.8172,-6.8158,-6.8177,-6.8207,-6.8238,-6.8219,-6.7861,-6.8151,-6.8147,-6.8145,-6.8144,-6.8142,-6.8809,-6.8841,-6.8785,-6.8784,-6.8751,-6.8726,-6.8747,-6.8684,-6.8683,-6.8661,-6.8596,-6.8609,-6.8558,-6.8513,-6.8485,-6.8493,-6.8435,-6.8465,-6.8471,-6.8479,-6.8495,-6.8239,-6.8488,-6.8487,-6.8486,-6.8486,-6.8485,0,-6.909,-6.9047,-6.9047,-6.901,-6.9009,-6.8921,-6.8885,-6.889,-6.8902,-6.8863,-6.8854,-6.8856,-6.8851,-6.8775,-6.876,-6.8781,-6.8738,-6.8781,-6.8777,-6.8769,-6.8549,-6.8532,-6.8816,-6.8816,-6.8816,-6.8816,-6.8816,-6.8816,-6.9236,-6.9284,-6.9229,-6.9259,-6.9216,-6.9226,-6.9212,-6.9189,-6.9157,-6.9164,-6.9158,-6.9108,-6.9054,-6.9034,-6.9025,-6.9002,-6.9001,-6.9058,-6.9022,-6.8817,-6.8785,-6.8755,-6.8738,-6.906,-6.906,-6.924,-6.9242,-6.9243]},{"header":{"parameterUnit":"m.s-1","parameterCategory":1,"la1":30.2991,"la2":30.254,"lo1":-89.0895,"lo2":-89.0444,"dy":0.0017,"dx":0.0017,"nx":28,"ny":28,"refTime":"2025-02-23T03:00:00:Z","depth":0,"parameterNumber":3,"parameterNumberName":"V-component_of_WINDS"},"data":[0,0,0,0,0,0,0,0,0,0,0,0,0,0,0,0,0,0,0,0,0,0,0,0,0,0,0,0,0,0,0,0,0,0,0,0,0,0,0,0,0,0,0,0,0,0,0,0,0,0,0,0,0,0,0,0,0,0,0.2524,0.2524,0,0.2472,0.2472,0.2471,0.2482,0.2483,0.2484,0.2485,0.2424,0.2422,0.2419,0,0,0,0,0,0,0,0,0,0,0,0,0,0.2628,0.2626,0.2524,0.2524,0.2523,0.2472,0.2472,0.2471,0.2482,0.2483,0.2484,0.2486,0.2425,0.2422,0.2419,0,0,0,0,0,0,0,0,0,0,0,0,0,0.258,0.2625,0.2524,0.2523,0.2522,0.2473,0.2472,0.2471,0.2482,0.2483,0.2485,0.2486,0.2426,0.2423,0.2419,0.2366,0,0,0.2407,0.2405,0,0,0,0,0,0,0,0,0.2582,0.2576,0.2524,0.2523,0.2522,0.2485,0.2486,0.2435,0.2481,0.2497,0.2485,0.2487,0.2443,0.2438,0.2425,0.2363,0.236,0.2407,0.2404,0.2403,0.2402,0,0,0,0,0,0,0,0.2586,0.2578,0.2504,0.2523,0.2522,0.2523,0.2517,0.2476,0.2462,0.2496,0.2496,0.249,0.2443,0.2428,0.2423,0.2359,0.2407,0.2404,0.2401,0.24,0.2251,0.225,0,0,0,0,0,0,0.2591,0.2581,0.2505,0.2502,0.2557,0.252,0.2514,0.2495,0.2463,0.2459,0.2489,0.2491,0.2434,0.2428,0.2421,0.2357,0.2403,0.2399,0.2397,0.2253,0.2251,0.2249,0,0,0,0,0,0,0.2593,0.2584,0.2507,0.2542,0.2532,0.2516,0.2496,0.2494,0.2479,0.2458,0.2455,0.2477,0.2435,0.2427,0.238,0.2355,0.2398,0.2394,0.2255,0.2252,0.225,0.2228,0,0,0,0,0,0,0.2596,0.2585,0.2566,0.2541,0.253,0.2469,0.2494,0.2492,0.2474,0.2476,0.2446,0.2442,0.2435,0.2386,0.2376,0.2351,0.2391,0.2257,0.2254,0.2251,0.2231,0.2226,0.2221,0,0,0,0,0,0.26,0.256,0.2565,0.2555,0.2506,0.2467,0.2461,0.2456,0.2472,0.2451,0.2438,0.2443,0.236,0.2381,0.237,0.2343,0.2259,0.2255,0.2251,0.2234,0.2227,0.2221,0,0,0,0,0,0,0.2579,0.2556,0.2561,0.2513,0.2492,0.2469,0.2444,0.2448,0.2421,0.2423,0.2416,0.241,0.2362,0.2348,0.2372,0.229,0.2311,0.2305,0.2301,0.2295,0.2289,0.2293,0.2388,0,0,0,0,0,0.2569,0.2541,0.2522,0.2481,0.2471,0.2459,0.2442,0.244,0.2417,0.2408,0.2391,0.2366,0.2335,0.2314,0.2283,0.223,0.2223,0.2206,0.22,0.2196,0.2191,0.2161,0.2153,0.2237,0.2237,0.2237,0,0,0.2547,0.2532,0.2514,0.2477,0.2461,0.243,0.2452,0.2418,0.2395,0.2402,0.2358,0.2345,0.2317,0.2267,0.2243,0.2253,0.2166,0.2191,0.2188,0.2185,0.2157,0.2149,0.2142,0.2234,0.2235,0.2235,0,0,0.2493,0.2479,0.2444,0.2428,0.2404,0.2397,0.2388,0.2365,0.2357,0.2313,0.2318,0.2289,0.2235,0.2215,0.2198,0.2138,0.2142,0.2128,0.21,0.2071,0.2065,0.2059,0.2037,0.203,0.2123,0.2123,0.2123,0,0.2469,0.2426,0.2424,0.2392,0.2375,0.2383,0.2346,0.233,0.2296,0.2283,0.2295,0.2228,0.221,0.2155,0.2141,0.2127,0.2116,0.2131,0.2066,0.206,0.2055,0.2034,0.2026,0.2122,0.2122,0.2122,0.2122,0,0.2397,0.2367,0.2341,0.2312,0.2292,0.2257,0.2249,0.2229,0.2229,0.222,0.2175,0.2154,0.212,0.2107,0.2105,0.2052,0.2059,0.2069,0.2089,0.2045,0.2026,0.2018,0.2119,0.212,0.212,0.2121,0,0,0.2327,0.2299,0.2289,0.2277,0.2252,0.2227,0.2192,0.2162,0.2144,0.2121,0.2091,0.2046,0.2055,0.2036,0.2032,0.2007,0.1961,0.202,0.2019,0.201,0.1901,0.1893,0.1884,0.1964,0.1963,0.1961,0.1903,0,0.227,0.2212,0.2211,0.2156,0.2128,0.2136,0.2105,0.2086,0.2077,0.205,0.2038,0.2007,0.2022,0.201,0.1986,0.1972,0.1939,0.1976,0.1934,0.1933,0.1941,0.1874,0.1865,0.1811,0.1895,0.1894,0.1893,0,0.2196,0.2174,0.2118,0.2098,0.2086,0.2059,0.2031,0.2006,0.1984,0.1979,0.1958,0.1959,0.1922,0.1945,0.1892,0.1918,0.19,0.1891,0.1889,0.1884,0.191,0.1866,0.1794,0.1785,0.1881,0.1882,0.1883,0,0.2151,0.2106,0.2068,0.2056,0.2032,0.2013,0.2001,0.1981,0.1963,0.1937,0.1926,0.1895,0.1878,0.1854,0.1846,0.1864,0.1794,0.1816,0.1787,0.1787,0.1771,0.1772,0.1694,0.1761,0.1761,0.1762,0.1762,0,0.2088,0.2053,0.2047,0.2023,0.1984,0.1982,0.1942,0.1932,0.1914,0.1886,0.189,0.1864,0.1855,0.1827,0.182,0.1777,0.1769,0.1763,0.1762,0.1763,0.1763,0.175,0.1754,0.1759,0.176,0.176,0.1761,0,0.203,0.2025,0.1983,0.1964,0.1959,0.1931,0.1914,0.189,0.1882,0.1847,0.1839,0.1825,0.1792,0.1783,0.1741,0.1737,0.1687,0.1689,0.1696,0.1695,0.1667,0.167,0.1577,0.1565,0.1641,0.164,0.1639,0,0.199,0.1964,0.1944,0.1927,0.1916,0.1888,0.1871,0.1868,0.1849,0.1822,0.1801,0.1769,0.1743,0.169,0.1675,0.1643,0.1644,0.1614,0.1639,0.1641,0.1643,0.1645,0.1642,0.1609,0.1608,0.1607,0.1607,0,0.192,0.1919,0.1895,0.187,0.185,0.1829,0.1809,0.1794,0.1788,0.1766,0.1735,0.1715,0.1675,0.1642,0.1611,0.1597,0.16,0.16,0.1591,0.1591,0.1596,0.1593,0.1682,0.1601,0.1602,0.1602,0.1602,0.1603,0.1869,0.1847,0.1829,0.1802,0.1788,0.177,0.1747,0.1737,0.1711,0.168,0.1679,0.1644,0.1622,0.1581,0.1565,0.1536,0.1544,0.1532,0.1529,0.1526,0.1524,0.1602,0.153,0.153,0.1531,0.1531,0.1531,0,0.1798,0.1788,0.1764,0.1738,0.1716,0.1725,0.1703,0.1684,0.1654,0.1634,0.161,0.1573,0.1542,0.1525,0.1494,0.1474,0.1475,0.1466,0.1467,0.1463,0.1518,0.1528,0.1466,0.1466,0.1466,0.1466,0.1466,0.1466,0.1759,0.1722,0.1719,0.1674,0.1663,0.1631,0.1618,0.1601,0.1586,0.1545,0.1521,0.1511,0.1492,0.146,0.1431,0.1427,0.1415,0.1405,0.1401,0.1453,0.1459,0.1466,0.1475,0.1402,0.1402,0.1349,0.1348,0.1348]}]]